User: anonymous   Login
Location: Ernsee
(50.8780°N, 12.0389°E)
Time: 12:06:30
(UTC+00:00)
Language:

Cosmos 1076 Rocket - Orbit

View from above orbital plane
View from above orbital plane
View from above satellite
View from above satellite

Ground track
Ground track

The orbit data is extracted from the following two-line orbital elements,

1 11267U 79011B   20098.78235992 +.00000098 +00000-0 +76895-5 0  9996
2 11267 082.5263 341.1210 0018264 061.3917 298.9135 14.88964776206875
Epoch (UTC): 07 April 2020 18:46:35
Eccentricity: 0.0018264
inclination: 82.5263°
perigee height: 588 km
apogee height: 614 km
right ascension of ascending node: 341.1210°
argument of perigee: 61.3917°
revolutions per day: 14.88964776
mean anomaly at epoch: 298.9135°
orbit number at epoch: 20687

The dashed part of the orbit path shows where the satellite is in the earth's shadow,  

DLR